Powrót do katalogu

BREEZE-M DEB

AktywnyHEO
NORAD 38590·DEBRIS·🇷🇺 Russia

Wystrzelony Mar 14, 2008 z Baikonur Cosmodrome

Loading…

Następne Przeloty (najbliższe 24 godziny)

TLE

ŚwieżeSource: Space-Track

Epoka: Sep 13, 2026, 13:44 UTC

1 38590U 08011AM  26256.57287269 -.00000041  00000-0  00000-0 0  9998
2 38590  48.8733 271.4046 6272257 352.5552   1.3575  2.88417442175466

Śledź BREEZE-M DEB w czasie rzeczywistym z AllMySat

Download on the App Store